Location: Biltmore Gardens
(41.6070°N, 83.4666°W)
Time: 13:47:08
(UTC+00:00)

AQUA - Pass Details

Date: 14 July 2020
Orbit: 701 x 703 km, 98.2° (Epoch: 04 August)

Event Time Altitude Azimuth Distance (km) Brightness Sun altitude
Rises 08:03:18 0° 6° (N) 3,101 8.2 -18.6°
Reaches altitude 10° 08:05:38 10° 360° (N) 2,178 7.1 -18.4°
Maximum altitude 08:10:09 44° 289° (WNW) 974 4.4 -17.9°
Enters shadow 08:11:54 31° 240° (WSW) 1,234 4.6 -17.7°
